Location: Le Petit-Vavre
(46.5081°N, 1.5239°E)
Time: 21:35:42
(UTC+00:00)

Helios 1A Rocket - Pass Details

Date: 03 March 2021
Orbit: 564 x 584 km, 98.3° (Epoch: 22 April)

Event Time Altitude Azimuth Distance (km) Brightness Sun altitude
Rises 19:12:12 0° 176° (S) 2,767 6.3 -16.1°
Reaches altitude 10° 19:14:23 10° 180° (S) 1,871 5.4 -16.5°
Maximum altitude 19:18:21 54° 259° (WSW) 695 3.6 -17.2°
Drops below altitude 10° 19:22:20 10° 337° (NNW) 1,876 5.9 -17.9°
Sets 19:24:31 0° 342° (NNW) 2,775 6.8 -18.2°
